Weather in Shreveport

United States     32°28′04″N   93°46′47″W
temp.,
°C
wind,
m/s
gust,
m/s
humid.,
%
clouds,
%
prec.,
mm/h
press.,
hPa
HPBL,
m
18 may, tue
tue1801:00+20se31096100 0.0 1012468
04:00+20se3894100 0.0 1012442
07:00+20sse3895100 0.0 1014385
10:00+24sse4780100 0.0 1013517
13:00+28sse466499 0.0 10131172
16:00+26sse478499 3.8 1011949
19:00+24se51191100 7.6 1010563
22:00+21se51598100 7.7 1012623
19 may, wed
wed1901:00+21sse51598100 22.2 1013811
04:00+21sse41297100 1.4 1012877
07:00+21sse41298100 7.5 1013852
10:00+21s2699100 15.5 1015478
13:00+24se3793100 29.1 1014684
16:00+25se3890100 12.4 1012719
19:00+24se61291100 20.8 1012896
22:00+23se51388100 0.1 10151040
20 may, thu
thu2001:00+22se41289100 0.2 10151067
04:00+21se51193100 0.2 1014985
07:00+20se51297100 3.1 1016821
10:00+21se41295100 0.9 1017833
13:00+24se498846 1.3 1017903
16:00+25se5990100 4.6 1016748
19:00+21se51397100 29.4 1017831
22:00+21se41496100 2.6 1019824
21 may, fri
fri2101:00+21se3129738 2.7 1020760
04:00+19ese31198100 0.0 1019485
07:00+19ese3119799 0.0 1022515
10:00+24se587660 0.0 1022828
13:00+28se586274 0.0 10221486
16:00+26se487771 0.8 1021758
19:00+23se4109385 3.5 1022524
22:00+21se211965 0.9 1023470
22 may, sat
sat2201:00+20se31293100 0.9 1023498
04:00+18ese2996100 0.0 1023309
07:00+18ese299518 0.0 1024296
10:00+23se47725 0.0 1025712
13:00+28sse47565 0.0 10241771
16:00+29sse46485 0.0 10221895
19:00+26se376796 0.0 1021290
22:00+22se2776100 0.0 1022171